User: anonymous   Login
Location: Unspecified
(0.0000°N, 0.0000°E)
Time: 09:29:21
(UTC+01:00)
Language:

NATO 3D Rocket - Orbit

View from above orbital plane
View from above orbital plane
View from above satellite
View from above satellite

Ground track
Ground track

The orbit data is extracted from the following two-line orbital elements,

1 15392U 84115B   17019.85555867 +.00000158 +00000-0 -11239-4 0  9991
2 15392 021.4968 268.9426 1034522 252.5022 095.9836 12.45543735447716
Epoch (UTC): 19 January 2017 20:32:00
Eccentricity: 0.1034522
inclination: 21.4968°
perigee height: 670 km
apogee height: 2296 km
right ascension of ascending node: 268.9426°
argument of perigee: 252.5022°
revolutions per day: 12.45543735
mean anomaly at epoch: 95.9836°
orbit number at epoch: 44771

The dashed part of the orbit path shows where the satellite is in the earth's shadow,  

DLR